Theta_e
322 320 321 322 324 326 326 326 327 326 326 324 322 323 324 324 326 328 329 348 348 348 347 340 342 343 338 337 337 337 337 337 335 335 333 322 322 320 320 320 319 319 320 324 325 327 326 319 313
325 322 321 323 325 324 326 327 326 326 325 323 323 324 325 326 326 328 334 347 347 350 343 344 344 341 338 337 338 338 337 338 336 336 335 323 322 320 319 319 318 318 319 324 324 324 318 314 311
324 321 323 325 326 326 326 326 326 325 324 324 325 325 324 325 327 333 336 341 348 349 342 349 345 340 338 338 338 338 338 338 337 336 336 324 325 323 320 319 318 318 320 322 320 318 315 311 310
322 321 322 324 323 324 324 325 326 326 325 325 324 325 324 324 328 334 336 344 347 346 347 350 346 342 338 337 337 337 337 338 338 336 336 326 327 327 324 320 318 318 318 319 317 316 312 310 311
322 322 325 326 325 325 325 325 325 326 325 325 325 326 326 325 330 332 338 348 350 348 348 350 346 347 342 337 337 337 337 337 338 336 336 328 328 330 328 324 319 318 318 317 316 314 311 310 311
322 322 325 325 325 325 326 326 325 326 325 325 325 326 327 327 330 333 339 347 350 347 343 344 345 347 345 338 336 336 336 337 339 337 336 330 330 332 332 327 319 319 318 317 314 312 310 309 312
324 325 326 326 326 326 326 326 326 326 325 325 325 326 326 327 329 331 338 343 350 348 341 341 343 345 342 338 337 336 336 337 339 338 337 332 332 334 333 327 320 319 318 316 313 311 310 309 313
324 327 327 327 327 326 326 326 325 325 325 324 324 326 327 328 328 328 337 343 348 349 343 342 341 343 342 338 337 336 336 338 339 338 338 334 334 335 334 325 320 319 319 315 311 311 310 309 314
325 326 327 327 326 327 326 327 325 325 325 325 324 324 324 325 327 327 331 342 344 347 344 343 343 342 342 339 337 337 338 338 339 339 339 335 337 335 333 323 320 320 319 313 311 310 310 310 314
327 328 326 326 326 327 327 327 326 326 326 326 326 326 326 325 326 328 328 333 340 337 347 343 345 343 343 344 338 338 339 340 340 340 338 335 338 335 328 322 321 321 317 311 310 310 310 313 314
327 328 327 326 326 326 327 327 326 327 328 327 327 327 328 326 327 327 328 330 334 340 343 345 345 345 343 342 342 341 340 341 341 341 339 338 340 334 332 324 322 321 313 309 309 310 311 321 315
330 328 327 327 327 327 328 327 328 327 328 327 327 328 328 328 327 327 328 329 330 342 345 344 347 345 344 342 343 342 340 341 342 342 340 341 338 334 332 326 323 321 313 310 309 311 319 326 324
329 329 328 328 327 327 327 328 329 329 328 328 328 328 328 328 328 328 328 328 329 334 346 347 345 346 343 343 343 343 342 341 340 341 340 340 338 336 334 333 326 323 316 319 319 321 325 326 326
327 328 328 327 327 328 329 329 329 329 329 329 329 329 329 329 328 328 328 328 328 332 343 347 346 347 344 343 342 343 341 342 341 340 339 338 337 338 335 333 327 324 322 324 324 324 325 327 326
327 329 329 329 328 329 328 331 331 329 329 329 329 329 329 329 329 328 328 328 329 331 339 346 347 343 347 343 344 343 343 342 342 340 339 337 338 338 335 333 327 324 322 325 325 324 326 327 325
329 328 331 329 328 328 329 334 331 329 330 330 330 330 330 330 329 329 329 329 329 330 334 343 346 345 341 343 342 343 343 341 341 341 340 339 337 338 336 333 329 326 321 324 325 325 327 326 324
329 331 331 331 329 329 330 332 330 329 329 329 329 329 329 329 329 329 329 329 329 329 331 337 345 344 344 342 343 342 341 342 342 340 339 339 338 337 336 335 332 327 322 324 326 326 325 324 324
331 332 332 332 330 330 331 332 330 329 329 329 329 329 329 329 329 329 329 329 329 329 330 333 340 343 343 344 344 345 345 342 344 341 339 339 337 337 336 335 333 330 325 322 324 324 324 323 323
331 331 330 329 328 329 330 332 330 329 328 329 329 329 329 329 329 329 329 329 329 329 329 332 334 341 343 343 344 345 342 343 342 340 338 340 339 339 337 335 334 332 329 324 321 323 323 323 322
330 331 332 329 328 329 330 331 329 329 329 328 329 329 329 329 329 329 328 328 328 328 329 330 332 336 342 342 342 343 344 341 342 342 339 339 337 338 336 336 335 332 332 327 322 322 323 322 322
330 331 330 331 329 329 329 331 329 328 328 327 328 328 328 328 328 328 328 327 328 329 328 328 329 332 336 342 342 342 342 342 342 340 339 338 338 337 336 335 336 333 333 333 324 321 322 322 322
331 329 330 330 330 333 328 335 329 328 328 328 329 328 328 329 328 329 328 329 329 328 329 328 328 330 334 339 341 341 339 338 338 339 339 338 338 337 336 336 336 335 335 334 330 321 320 322 322
330 326 329 329 330 331 330 331 332 328 328 329 329 330 330 330 329 329 328 328 328 328 328 328 330 330 332 338 342 341 338 336 337 336 337 341 337 337 337 335 336 336 336 336 333 325 320 320 321
326 328 328 329 331 332 332 332 334 329 328 329 330 328 328 327 327 327 327 327 328 328 330 330 328 331 332 336 340 341 338 336 335 335 335 336 336 335 336 335 335 334 335 335 335 334 329 320 320
327 329 332 333 333 333 330 332 334 329 329 328 328 325 324 323 323 322 322 323 323 325 327 330 330 330 334 336 338 341 338 337 335 335 334 335 334 334 333 335 334 334 335 334 334 334 332 326 320
328 330 332 335 336 333 328 330 332 326 327 327 323 320 319 318 318 317 317 317 317 318 320 324 327 331 330 337 339 341 338 336 335 334 334 333 334 334 334 334 333 334 334 334 334 334 332 330 325
327 329 327 331 331 331 332 331 319 318 317 318 317 315 314 313 313 312 312 313 314 315 316 318 321 324 329 332 333 337 337 338 336 335 334 335 335 334 334 333 332 332 332 332 333 332 332 330 329
320 322 328 327 330 334 329 329 330 316 312 310 311 311 309 309 310 309 309 310 310 312 313 315 317 318 321 326 329 330 333 335 338 337 336 335 335 334 334 333 333 333 333 332 331 331 331 330 327
316 320 317 321 318 330 332 332 313 314 310 308 307 306 307 307 306 307 307 307 308 309 310 311 313 316 319 320 324 327 328 331 333 335 337 336 336 336 335 335 334 334 333 332 331 331 330 330 330
312 315 313 320 324 321 322 323 311 310 310 310 308 307 306 305 306 308 309 308 306 307 308 308 309 310 314 317 319 321 325 324 330 332 334 336 337 336 335 334 335 334 334 333 332 331 329 330 329
Wind_Speed
5 4 2 8 8 8 16 20 6 5 5 3 4 7 12 16 11 12 10 11 11 2 15 18 33 34 35 35 35 33 30 29 29 27 24 23 22 21 20 18 17 16 14 13 11 10 8 8 10
5 6 8 12 9 13 12 2 3 5 7 4 10 16 17 12 8 11 11 15 9 2 8 23 34 33 34 34 34 33 30 29 29 28 26 25 24 21 20 18 16 14 14 14 11 10 9 9 11
12 10 14 10 14 16 16 5 4 1 5 10 13 12 12 10 5 8 12 13 4 5 8 22 34 33 32 33 33 33 31 30 30 30 28 27 25 22 21 19 17 15 14 13 11 10 10 10 11
7 9 15 12 21 21 17 15 3 9 11 4 10 12 12 12 7 9 13 6 2 7 16 22 32 32 32 31 31 31 30 31 31 32 30 28 26 24 22 20 17 16 15 13 10 10 10 11 12
11 13 14 18 20 20 20 14 9 12 11 9 9 15 15 8 5 9 10 4 4 8 16 22 30 30 31 31 31 31 30 31 32 33 32 30 28 25 22 20 18 17 16 14 11 10 10 12 12
16 16 15 18 20 17 16 8 12 13 15 6 11 16 12 8 4 9 8 2 5 9 18 22 28 32 31 31 30 30 30 31 33 35 34 32 29 26 23 21 19 18 17 15 13 12 12 13 13
18 14 21 22 21 22 18 20 5 11 14 15 12 12 17 6 5 8 7 3 7 11 11 18 24 31 31 30 30 30 30 31 34 36 35 33 30 26 23 21 20 19 17 15 14 13 13 14 14
22 15 26 21 19 23 19 7 11 12 15 16 8 11 11 15 6 10 9 4 7 15 14 16 22 30 32 30 29 29 29 31 34 36 36 33 30 27 23 22 21 20 18 16 15 15 15 16 15
22 15 19 23 23 22 20 16 14 17 21 23 20 25 25 24 21 17 15 13 10 20 18 19 22 26 29 31 31 29 29 31 34 36 36 33 31 28 24 22 22 21 19 18 17 17 16 17 16
19 18 24 23 23 21 21 20 23 25 27 30 29 30 26 24 24 22 22 20 19 18 23 24 25 27 28 26 33 32 31 32 34 37 37 35 32 30 25 26 24 22 20 19 19 18 18 19 18
27 23 22 28 29 26 24 28 30 28 26 31 27 31 27 27 26 27 26 25 21 20 24 28 28 29 30 30 30 33 33 35 36 39 39 37 27 27 24 28 27 24 23 22 21 21 21 18 19
25 28 29 29 30 28 29 38 34 33 33 36 36 37 35 33 31 30 29 29 24 21 23 28 31 31 33 34 34 32 32 36 37 38 40 35 29 29 29 27 29 29 28 25 25 25 21 18 17
26 26 32 32 33 35 39 33 33 36 40 40 41 40 39 36 35 34 33 31 28 26 25 28 29 32 35 39 34 35 36 35 37 38 41 35 32 32 29 26 28 28 28 26 25 23 21 20 18
32 35 34 36 33 37 35 36 38 42 42 38 40 40 35 33 35 34 34 34 32 29 28 30 30 34 33 38 41 38 40 37 39 40 42 42 36 34 33 30 27 27 27 26 25 24 23 20 19
27 26 26 24 32 33 37 37 35 42 42 39 39 36 33 30 29 33 34 35 34 33 30 31 32 32 37 35 39 44 35 40 42 45 44 45 41 36 35 32 32 32 31 27 26 25 24 22 20
18 20 19 18 29 32 34 34 24 30 28 24 23 22 26 27 28 29 31 33 34 35 34 32 32 32 34 39 35 39 46 42 44 46 44 45 47 40 40 35 35 35 38 31 28 30 27 23 22
8 17 29 29 28 30 31 38 24 30 32 23 23 21 25 25 25 27 29 32 35 37 39 36 35 33 34 35 34 33 35 45 45 44 46 46 45 43 42 37 35 38 38 33 32 31 30 28 25
18 18 23 30 23 22 24 29 24 26 31 30 30 32 29 28 27 26 27 30 31 36 38 40 38 37 35 33 34 33 33 35 41 46 46 50 49 50 47 39 36 41 40 40 35 33 32 30 27
32 33 34 29 23 23 27 29 27 27 33 26 34 34 32 32 32 31 28 28 29 30 38 39 41 39 36 38 38 38 42 40 43 45 48 50 52 56 49 45 38 42 43 43 40 37 35 33 30
30 33 36 27 22 24 26 38 30 27 27 34 35 37 37 34 32 31 30 29 32 32 33 37 40 41 39 37 39 40 37 42 41 44 45 48 48 54 51 50 47 47 45 46 44 42 38 35 37
26 30 26 27 21 25 26 41 30 30 34 40 40 39 38 39 38 31 30 31 25 30 33 35 38 40 43 40 38 39 39 39 39 44 46 47 50 53 54 54 48 50 48 49 49 48 45 41 40
26 27 30 30 21 17 12 26 22 21 24 18 18 23 27 23 29 29 28 27 26 25 27 32 36 38 41 41 41 43 45 43 47 46 49 50 51 50 50 54 56 57 53 50 52 51 50 43 45
27 23 29 27 21 20 24 11 40 14 16 17 5 2 3 7 7 11 9 14 14 16 17 22 28 35 37 40 42 42 47 44 41 42 43 48 52 52 53 53 54 57 56 54 54 52 49 51 47
29 29 27 22 19 12 36 18 35 17 22 16 14 10 12 11 9 9 9 11 11 12 13 14 21 25 32 34 41 41 42 46 40 42 42 44 49 53 55 55 53 53 56 58 59 57 56 53 50
23 23 11 8 10 16 29 17 29 7 13 2 14 15 15 14 11 10 9 8 7 6 6 7 11 21 26 31 32 37 37 41 44 41 42 44 45 50 55 56 57 53 56 58 60 61 60 59 55
22 24 9 14 5 13 24 11 14 2 6 12 20 16 14 13 11 8 5 4 3 2 0 1 4 8 16 21 27 28 31 34 41 41 45 45 47 48 51 54 56 55 53 55 59 62 62 62 61
28 17 33 26 26 14 4 4 17 15 12 15 13 16 14 12 10 8 6 3 3 3 3 3 2 3 6 10 17 24 32 32 34 38 42 47 45 49 49 50 53 55 54 53 58 61 64 64 63
7 5 11 10 11 19 19 23 6 18 15 14 11 13 13 11 9 8 6 6 6 7 7 8 6 3 3 5 8 16 20 30 33 35 37 38 43 48 50 49 51 52 51 52 53 58 63 64 63
2 3 4 2 2 6 8 3 4 16 14 11 7 8 8 8 8 9 10 8 8 7 8 9 9 8 4 4 6 9 17 22 24 32 38 39 40 43 45 47 49 49 50 52 56 57 55 60 63
2 1 2 4 6 2 2 4 8 15 10 6 3 2 1 3 5 6 7 9 11 12 11 11 11 10 8 8 7 8 10 15 21 24 28 34 41 41 43 46 47 47 49 50 52 56 61 61 62
Wind_Direction
247 213 205 254 249 227 274 276 101 281 269 75 313 279 297 296 284 293 346 357 353 321 253 199 179 175 177 175 176 175 176 176 176 174 171 169 169 164 163 163 161 158 160 164 162 151 148 139 130
198 222 234 265 258 264 265 67 179 44 15 279 279 277 258 265 275 303 317 338 353 217 246 182 178 177 179 179 179 180 181 181 181 179 176 175 173 167 167 168 169 164 166 168 165 159 148 139 131
176 218 263 239 242 257 273 41 325 113 217 263 291 263 277 265 289 306 308 318 345 212 177 189 180 179 182 184 186 185 186 188 188 185 181 181 178 174 172 174 175 172 173 175 169 159 149 138 130
184 222 251 253 255 270 280 275 200 245 276 221 280 281 244 257 279 313 323 322 244 269 152 203 187 183 187 190 191 192 192 193 193 190 185 185 183 181 178 181 180 179 177 181 171 163 149 140 134
225 257 254 254 253 262 268 280 286 274 286 293 279 273 284 236 242 316 331 330 183 254 173 202 196 191 194 196 197 199 198 198 197 195 189 189 189 187 185 187 186 184 181 183 175 167 155 145 141
235 232 260 260 266 262 253 249 240 269 281 273 262 264 272 242 264 307 328 316 180 242 193 207 198 197 196 199 202 203 203 202 200 198 194 192 192 193 192 192 191 190 187 184 179 171 163 152 151
243 255 252 264 282 288 284 297 290 282 281 276 248 284 285 212 223 317 312 290 197 231 205 215 199 195 197 201 205 207 206 204 202 200 196 196 195 197 199 198 196 195 191 189 180 177 168 163 158
249 257 263 267 269 272 274 246 286 271 272 289 288 269 273 248 239 301 294 267 217 223 209 211 205 201 200 202 207 208 209 205 203 200 198 198 197 200 203 203 201 198 195 192 186 183 173 169 161
247 259 257 259 264 269 272 272 219 248 272 270 269 266 271 274 277 278 263 262 220 228 217 209 196 200 199 201 204 207 210 206 203 201 200 198 198 200 206 204 203 200 198 195 190 187 179 172 166
228 247 252 260 273 287 293 287 279 281 275 272 269 267 265 263 261 257 252 246 256 234 218 210 199 198 194 194 202 203 206 205 203 201 201 198 199 199 202 205 204 199 198 197 192 189 181 176 173
234 244 266 278 284 290 290 276 275 278 274 271 273 277 270 260 257 255 250 240 239 245 221 213 204 198 194 191 204 196 200 202 202 202 200 197 194 190 185 206 202 198 195 195 190 187 183 176 178
247 251 258 270 280 283 275 281 281 278 277 277 277 273 270 263 255 251 244 239 236 222 214 214 210 203 196 196 199 196 199 199 201 202 201 193 190 194 186 205 202 198 195 195 192 188 179 182 174
260 260 264 271 273 273 277 274 278 279 276 277 273 269 265 260 254 246 241 237 234 224 216 210 206 208 204 198 199 198 197 202 203 205 204 192 191 198 188 199 195 195 190 198 189 186 182 184 182
279 281 277 276 277 277 280 278 281 275 278 274 269 264 261 255 247 242 234 231 228 224 215 209 206 212 208 208 204 198 197 200 199 209 207 195 193 203 192 201 190 191 188 199 189 188 185 188 184
269 273 270 266 269 271 275 273 266 272 272 263 263 261 259 250 242 235 231 228 225 220 215 211 207 216 208 209 209 207 203 201 201 210 209 200 197 204 196 199 192 195 185 198 189 191 189 189 186
266 266 274 254 255 258 257 268 269 268 278 273 253 254 255 249 237 234 230 227 224 220 214 209 208 210 216 207 211 213 210 206 208 211 208 203 202 206 204 197 199 208 195 190 189 192 190 189 186
193 257 256 266 257 263 254 266 278 278 271 266 273 256 256 254 242 232 227 226 227 222 217 210 208 207 210 207 210 214 217 216 220 221 214 210 207 207 208 200 205 213 199 189 192 196 192 189 187
242 245 246 256 255 254 257 264 265 261 267 270 243 258 250 254 253 234 231 228 225 222 218 216 210 213 209 208 211 211 213 219 217 227 224 222 213 213 211 201 203 215 206 201 194 197 194 192 188
242 251 263 271 280 282 267 271 274 278 275 264 261 257 254 249 247 246 233 227 221 217 216 216 215 213 207 208 209 208 211 215 219 225 224 222 220 214 213 207 205 217 211 207 200 196 194 191 189
242 257 263 275 287 277 274 270 268 267 271 268 260 256 250 247 244 238 239 225 218 217 216 216 218 215 210 214 213 213 215 213 220 223 227 220 220 214 220 214 212 216 215 213 207 196 193 191 190
227 239 254 260 264 260 271 278 273 266 252 250 254 251 254 250 243 230 225 232 222 216 217 218 217 217 216 217 217 217 215 214 217 219 221 219 225 224 227 222 215 215 219 219 211 204 197 190 192
244 229 237 247 257 256 252 278 267 278 278 279 252 237 242 237 233 226 221 216 214 227 230 228 223 219 216 215 215 217 216 213 217 218 227 227 228 229 228 227 223 221 225 223 219 214 206 194 193
245 250 255 252 253 258 255 258 273 275 265 256 204 48 104 111 149 181 183 190 203 215 230 230 222 220 217 214 212 218 223 219 220 220 221 223 227 227 228 227 229 232 233 230 225 218 205 204 202
242 248 258 260 260 250 252 225 272 254 256 239 162 153 139 132 143 162 170 180 192 206 215 223 222 218 216 216 214 214 226 225 219 224 222 220 221 225 229 230 230 233 234 233 232 229 226 212 208
238 253 236 230 229 236 244 223 244 241 247 252 128 134 132 138 141 151 160 168 169 178 188 203 216 215 212 216 221 219 226 231 228 223 227 222 220 221 222 226 230 232 235 234 234 234 231 226 217
219 232 235 238 215 248 239 218 241 330 240 147 127 127 126 122 126 121 126 155 180 176 171 208 183 200 215 213 220 224 227 228 230 230 228 229 229 227 226 230 229 233 234 235 236 235 234 233 227
232 227 228 245 260 274 230 275 70 72 66 91 119 124 114 113 110 97 93 76 60 18 6 358 324 218 214 219 223 228 230 231 231 234 233 234 231 231 233 235 234 232 236 236 236 236 237 233 234
241 326 226 207 238 239 232 235 169 143 113 100 86 72 80 74 79 83 49 36 19 11 4 354 348 305 277 247 240 232 225 238 236 237 236 236 239 237 240 241 239 238 238 238 238 239 236 236 233
314 196 249 130 93 257 256 145 313 117 122 110 86 76 79 70 48 44 43 22 9 355 349 347 344 343 325 301 269 261 246 231 238 243 240 237 232 237 238 242 243 238 237 238 236 237 240 240 239
309 313 59 334 119 132 347 103 121 119 115 110 108 128 81 27 4 4 360 356 1 353 346 337 329 325 325 315 291 267 276 259 240 242 245 251 237 232 240 243 243 244 243 242 239 239 237 239 239